Location: Moena
(46.3667°N, 11.6500°E)
Time: 15:27:00
(UTC+00:00)

Resurs 1-3 - Pass Details

Date: 03 March 2021
Orbit: 629 x 633 km, 97.9° (Epoch: 17 April)

Event Time Altitude Azimuth Distance (km) Brightness Sun altitude
Exits shadow 19:38:49 58° 315° (NW) 743 4.1 -27.3°
Drops below altitude 10° 19:42:30 10° 343° (NNW) 2,027 6.6 -27.9°
Sets 19:44:44 0° 345° (NNW) 2,940 7.5 -28.3°
